Orbital Elements at Epoch 2459000.5 (2020-May-31.0) TDB
Reference: JPL 20 (heliocentric ecliptic J2000)
Element | Value | Uncertainty (1-sigma) | Units |
e | .06633547942431162 | 4.5383e-08 | |
a | 2.758923924123869 | 1.819e-08 | au |
q | 2.575909382921909 | 1.3043e-07 | au |
i | 7.562997308450854 | 4.5555e-06 | deg |
node | 116.0396841111995 | 3.9086e-05 | deg |
peri | 240.0886895005157 | 5.4655e-05 | deg |
M | 268.0450741343532 | 4.0384e-05 | deg |
tp | 2459428.043701144012 (2021-Aug-01.54370114) | 0.0001888 | TDB |
period | 1673.817155121486 4.58 | 1.6553e-05 4.532e-08 | d yr |
n | .2150772555404184 | 2.127e-09 | deg/d |
Q | 2.941938465325829 | 1.9396e-08 | au |
|
| | Orbit Determination Parameters
Additional Information
|